STARLINK-32483, 61856

Orbit data source: Space-Track

STARLINK-32483, 61856 is a payload satellite owned by SpaceX/Seattle (US) in LEO that was launched on Thu, 07 Nov 2024 UTC via an FALCON 9 launch vehicle from the Air Force Eastern Test Range (AFETR). Payload-class satellites include a variety of spacecraft equipped with specific instruments for various scientific and technological missions. These include communications satellites like Starlink; space stations such as the ISS; scientific satellites like the Hubble; Earth observation satellites from companies like Planet Labs, Umbra, and HawkEye 360; GPS; miniature CubeSats for education and research; and military/defense satellites.

Loading next visibility...
Identifier
61856, 2024-202M
Orbit
LEO
Country
Flag of USUS
Related business
Manufacturer
SpaceX/Seattle
Mission
Operational Commercial Communications
Bus & Motor
STARLINK V2M, Unknown motor
Mass
730 kg wet, ~700 kg dry
Launch date (UTC)
2024-11-07 (1 year ago)
Launch vehicle
FALCON 9
Launch site
Air Force Eastern Test Range (AFETR)
Object type
Payload
Rocket body
Debris
Shape & HBR
Box + 2 Pan, 17.7 m
Radar Cross Section
33.884 m², Large (>1 m²)

Expand to show TLE details & history
Last TLE update: 15 hours ago

TLE from 15 hours ago
0 STARLINK-32483
1 61856U 24202M   25354.20974120 -.00004207  00000-0 -14348-3 0  9998
2 61856  43.0006 326.7289 0001572 256.4312 103.6365 15.27569868 63185
Epoch: 2025-12-20T05:02Z
TLE epoch observation values (Epoch: 2025-12-20T05:02:01.639Z)
Latitude
Longitude
162.18225°
Altitude
483.109 km
Speed
7.626 km/s
True Right ascension
21h 46m 54s
True Declination
0° 00' 00"
Sunlit
Object was in daylight at epoch
Visualization orbit readout
Latitude
Unknown
Longitude
Unknown
Altitude
Unknown
Speed
Unknown
Apparent Right ascension
Unknown
Apparent Declination
Unknown
Sunlit
N/A
Visualization observer readout
Local Sidereal Time
19:07:02
Azimuth
Unknown
Elevation
Unknown
Doppler factor
Unknown
Orbital elements
Apogee altitude
486.103 km
Perigee altitude
483.946 km
Semi-major axis
6,863.161 km
Eccentricity
0.00016
Inclination
43.0006°
RAAN
326.7289°
Arg. of periapsis
256.4312°
True anomaly
103.65401°
Mean anomaly
103.6365°
Eccentric anomaly
103.64525°
Mean motion
3.8173 °/min
Orbital period
94.31 mins
BSTAR
-0.00014348
Loading maneuver chart data...
Computing Atmospheric mass density...
Loading historical data...
Loading historical data...
Loading historical data...
Loading historical data...
Loading historical data...
Loading historical data...
Loading historical data...

Documentation

Showing up to 5 results
|